カタログに戻る

DELTA 1 DEB

運用中LEO
NORAD 7203·DEBRIS·🇺🇸 United States

打ち上げ Nov 6, 1973 から Vandenberg Space Force Base

Loading…

次のパス (今後24時間)

TLE

最新Source: Space-Track

元期: Sep 13, 2026, 16:15 UTC

1 07203U 73086FM  26256.67711953  .00000116  00000-0  17781-3 0  9991
2 07203 102.0089 305.3449 0443375  19.1679 342.5551 13.40904712572393

AllMySatでDELTA 1 DEBをリアルタイム追跡

Download on the App Store